User: anonymous   Login
Location: Vancouver
(49.2500°N, 123.1330°W)
Time: 10:35:18
(UTC-07:00)
Language:

Oscar 11 - Orbit

View from above orbital plane
View from above orbital plane
View from above satellite
View from above satellite

Ground track
Ground track

The orbit data is extracted from the following two-line orbital elements,

1 14781U 84021B   18113.14548372  .00000099  00000-0  18321-4 0  9991
2 14781  97.6555 151.6906 0006987 262.0920  97.9501 14.82997030836280
Epoch (UTC): 23 April 2018 03:29:29
Eccentricity: 0.0006987
inclination: 97.6555°
perigee height: 615 km
apogee height: 625 km
right ascension of ascending node: 151.6906°
argument of perigee: 262.0920°
revolutions per day: 14.82997030
mean anomaly at epoch: 97.9501°
orbit number at epoch: 83628

The dashed part of the orbit path shows where the satellite is in the earth's shadow,  

DLR